Weather History for KDMW - February, 2014

Change the Weather History Date:

Monday, February 24, 2014

  Actual Average (KTHV) Record (KTHV)
Temperature  
Mean Temperature 32 °F -  
Max Temperature 37 °F 0 °F 51 °F (2002)
Min Temperature 28 °F - -11 °F (2015)
Degree Days  
Heating Degree Days 32    
Moisture  
Dew Point 13 °F    
Average Humidity 46    
Maximum Humidity 87    
Minimum Humidity 28    
Precipitation  
Precipitation 0.00 in - - ()
Sea Level Pressure  
Sea Level Pressure 30.00 in    
Wind  
Wind Speed 11 mph (WNW)    
Max Wind Speed 24 mph    
Max Gust Speed 31 mph    
Visibility 10 miles    
Events      
Averages and records for this station are not official NWS values.
T = Trace of Precipitation, MM = Missing Value Source: NWS Daily Summary

Daily Weather History Graph

Daily Weather History Graph

Search for Another Location

Airport or City:

Trip Planner

Search our weather history database for the weather conditions in past years. The results will help you decide how hot, cold, wet, or windy it might be!

Date:

Astronomy

Feb. 24, 2014 Rise Set
Actual Time 6:48 AM EST 5:54 PM EST
Civil Twilight 6:21 AM EST 6:21 PM EST
Nautical Twilight 5:49 AM EST 6:53 PM EST
Astronomical Twilight 5:18 AM EST 7:24 PM EST
Moon 2:44 AM EST (2/24) 12:54 PM EST (2/24)
Length of Visible Light 12h 00m
Length of Day
11h 06m
Waning Crescent, 28% of the Moon is Illuminated
Feb 24
Waning Crescent
Mar 1
New
Mar 8
First Quarter
Mar 16
Full
Mar 23
Last Quarter

Hourly Weather History & Observations

Time (EST) Temp. Windchill Dew Point Humidity Pressure Visibility Wind Dir Wind Speed Gust Speed Precip Events Conditions
12:10 AM 37.4 °F 32.1 °F 33.8 °F 87% 29.92 in 10.0 mi West 6.9 mph - N/A   Overcast
12:30 AM 37.4 °F 30.8 °F 33.8 °F 87% 29.91 in 10.0 mi West 9.2 mph - N/A   Overcast
12:50 AM 37.4 °F 31.4 °F 33.8 °F 87% 29.92 in 10.0 mi WNW 8.1 mph - N/A   Overcast
1:10 AM 37.4 °F 33.8 °F 33.8 °F 87% 29.92 in 10.0 mi WNW 4.6 mph - N/A   Overcast
1:30 AM 37.4 °F 29.3 °F 30.2 °F 75% 29.92 in 10.0 mi WNW 12.7 mph - N/A   Mostly Cloudy
1:50 AM 37.4 °F 30.3 °F 30.2 °F 75% 29.91 in 10.0 mi WNW 10.4 mph - N/A   Scattered Clouds
2:10 AM 37.4 °F 29.3 °F 28.4 °F 70% 29.91 in 10.0 mi West 12.7 mph - N/A   Clear
2:30 AM 37.4 °F 32.1 °F 28.4 °F 70% 29.91 in 10.0 mi West 6.9 mph - N/A   Clear
2:50 AM 35.6 °F 28.6 °F 28.4 °F 75% 29.91 in 10.0 mi West 9.2 mph - N/A   Clear
3:10 AM 35.6 °F 29.2 °F 26.6 °F 70% 29.91 in 10.0 mi WNW 8.1 mph - N/A   Clear
3:30 AM 35.6 °F 29.9 °F 26.6 °F 70% 29.91 in 10.0 mi WNW 6.9 mph - N/A   Clear
3:50 AM 35.6 °F 30.7 °F 28.4 °F 75% 29.92 in 10.0 mi West 5.8 mph - N/A   Clear
4:10 AM 33.8 °F 27.7 °F 26.6 °F 75% 29.92 in 10.0 mi West 6.9 mph - N/A   Clear
4:30 AM 32.0 °F 24.8 °F 24.8 °F 75% 29.92 in 10.0 mi West 8.1 mph - N/A   Clear
4:50 AM 33.8 °F 27.0 °F 23.0 °F 65% 29.93 in 10.0 mi West 8.1 mph - N/A   Clear
5:10 AM 33.8 °F 26.4 °F 21.2 °F 60% 29.93 in 10.0 mi West 9.2 mph - N/A   Clear
5:30 AM 33.8 °F 26.4 °F - N/A% 29.94 in 10.0 mi WNW 9.2 mph - N/A   Clear
5:50 AM - - - N/A% 29.95 in 10.0 mi WNW 10.4 mph - N/A   Clear
6:10 AM 32.0 °F 26.4 °F 17.6 °F 55% 29.95 in 10.0 mi NW 5.8 mph - N/A   Clear
6:30 AM 30.2 °F 19.3 °F 15.8 °F 55% 29.96 in 10.0 mi WNW 15.0 mph 19.6 mph N/A   Clear
6:50 AM 30.2 °F 20.8 °F 14.0 °F 51% 29.96 in 10.0 mi WNW 11.5 mph 18.4 mph N/A   Clear
7:10 AM 30.2 °F 19.8 °F 10.4 °F 44% 29.98 in 10.0 mi WNW 13.8 mph 18.4 mph N/A   Clear
7:30 AM 28.4 °F 18.0 °F 10.4 °F 47% 29.98 in 10.0 mi WNW 12.7 mph 19.6 mph N/A   Clear
7:50 AM 28.4 °F 19.1 °F 8.6 °F 43% 29.99 in 10.0 mi WNW 10.4 mph 17.3 mph N/A   Clear
8:10 AM 28.4 °F 19.7 °F 8.6 °F 43% 30.00 in 10.0 mi WNW 9.2 mph 18.4 mph N/A   Clear
8:30 AM 28.4 °F 17.5 °F 10.4 °F 47% 30.02 in 10.0 mi WNW 13.8 mph 17.3 mph N/A   Clear
8:50 AM 28.4 °F 18.0 °F 8.6 °F 43% 30.02 in 10.0 mi WNW 12.7 mph 20.7 mph N/A   Clear
9:10 AM 28.4 °F 16.2 °F 6.8 °F 40% 30.01 in 10.0 mi West 17.3 mph 20.7 mph N/A   Clear
9:30 AM 30.2 °F 20.2 °F 6.8 °F 37% 30.01 in 10.0 mi WNW 12.7 mph 23.0 mph N/A   Clear
9:50 AM 30.2 °F 20.2 °F 8.6 °F 40% 30.01 in 10.0 mi WNW 12.7 mph 25.3 mph N/A   Clear
10:10 AM 30.2 °F 18.5 °F 8.6 °F 40% 30.01 in 10.0 mi West 17.3 mph 24.2 mph N/A   Clear
10:30 AM 30.2 °F 20.2 °F 8.6 °F 40% 30.01 in 10.0 mi WNW 12.7 mph 23.0 mph N/A   Clear
10:50 AM 32.0 °F 20.5 °F 8.6 °F 38% 30.02 in 10.0 mi West 18.4 mph 24.2 mph N/A   Clear
11:10 AM 32.0 °F 20.1 °F 8.6 °F 38% 30.02 in 10.0 mi WNW 19.6 mph 28.8 mph N/A   Clear
11:30 AM 33.8 °F 24.3 °F 8.6 °F 35% 30.01 in 10.0 mi West 13.8 mph 24.2 mph N/A   Clear
11:50 AM 33.8 °F 23.2 °F 8.6 °F 35% 30.01 in 10.0 mi WNW 17.3 mph 26.5 mph N/A   Clear
12:10 PM 33.8 °F 23.9 °F 8.6 °F 35% 30.00 in 10.0 mi West 15.0 mph 20.7 mph N/A   Clear
12:30 PM 35.6 °F 25.2 °F 8.6 °F 33% 29.99 in 10.0 mi West 18.4 mph 29.9 mph N/A   Clear
12:50 PM 35.6 °F 25.5 °F 6.8 °F 30% 29.99 in 10.0 mi WNW 17.3 mph 23.0 mph N/A   Clear
1:10 PM 35.6 °F 24.8 °F 6.8 °F 30% 29.98 in 10.0 mi West 19.6 mph 26.5 mph N/A   Clear
1:30 PM 35.6 °F 24.8 °F 6.8 °F 30% 29.98 in 10.0 mi WNW 19.6 mph 26.5 mph N/A   Clear
1:50 PM 37.4 °F 28.2 °F 6.8 °F 28% 29.97 in 10.0 mi WNW 16.1 mph 29.9 mph N/A   Clear
2:10 PM 37.4 °F 28.2 °F 8.6 °F 30% 29.97 in 10.0 mi West 16.1 mph 25.3 mph N/A   Clear
2:30 PM 37.4 °F 28.9 °F 8.6 °F 30% 29.98 in 10.0 mi WNW 13.8 mph 19.6 mph N/A   Clear
2:50 PM 37.4 °F 26.1 °F 6.8 °F 28% 29.99 in 10.0 mi WNW 24.2 mph 29.9 mph N/A   Clear
3:10 PM 37.4 °F 28.5 °F 8.6 °F 30% 29.99 in 10.0 mi WNW 15.0 mph 25.3 mph N/A   Clear
3:30 PM 37.4 °F 26.9 °F 6.8 °F 28% 30.00 in 10.0 mi WNW 20.7 mph 27.6 mph N/A   Clear
3:50 PM 37.4 °F 27.2 °F 6.8 °F 28% 30.00 in 10.0 mi WNW 19.6 mph 26.5 mph N/A   Clear
4:10 PM 35.6 °F 24.5 °F 6.8 °F 30% 30.01 in 10.0 mi WNW 20.7 mph 31.1 mph N/A   Clear
4:30 PM 35.6 °F 24.8 °F 5.0 °F 28% 30.02 in 10.0 mi WNW 19.6 mph 27.6 mph N/A   Clear
4:50 PM 35.6 °F 25.9 °F 6.8 °F 30% 30.03 in 10.0 mi WNW 16.1 mph 25.3 mph N/A   Clear
5:10 PM 35.6 °F 26.2 °F 6.8 °F 30% 30.04 in 10.0 mi WNW 15.0 mph 26.5 mph N/A   Clear
5:30 PM 33.8 °F 23.5 °F 6.8 °F 32% 30.04 in 10.0 mi WNW 16.1 mph 31.1 mph N/A   Clear
5:50 PM 33.8 °F 24.8 °F 6.8 °F 32% 30.05 in 10.0 mi WNW 12.7 mph 27.6 mph N/A   Unknown
6:10 PM 33.8 °F 24.3 °F 6.8 °F 32% 30.06 in 10.0 mi WNW 13.8 mph 26.5 mph N/A   Clear
6:30 PM 32.0 °F 24.8 °F 8.6 °F 38% 30.06 in 10.0 mi NW 8.1 mph 19.6 mph N/A   Clear
6:50 PM 32.0 °F 27.5 °F 8.6 °F 38% 30.08 in 10.0 mi NW 4.6 mph - N/A   Clear
7:10 PM 30.2 °F - 8.6 °F 40% 30.08 in 10.0 mi Calm Calm - N/A   Clear
7:30 PM 30.2 °F 26.7 °F 8.6 °F 40% 30.09 in 10.0 mi WNW 3.5 mph - N/A   Clear
7:50 PM 30.2 °F 25.4 °F 8.6 °F 40% 30.10 in - West 4.6 mph - N/A   Clear
8:10 PM 30.2 °F 24.3 °F 8.6 °F 40% 30.10 in 10.0 mi West 5.8 mph - N/A   Clear
8:30 PM 28.4 °F 21.2 °F 8.6 °F 43% 30.10 in 10.0 mi WNW 6.9 mph - N/A   Clear
8:50 PM 30.2 °F 23.4 °F 8.6 °F 40% 30.10 in 10.0 mi West 6.9 mph - N/A   Clear
9:10 PM 30.2 °F 21.9 °F 8.6 °F 40% 30.11 in 10.0 mi West 9.2 mph - N/A   Clear
9:30 PM 30.2 °F 20.2 °F 6.8 °F 37% 30.10 in 10.0 mi WNW 12.7 mph 18.4 mph N/A   Clear
9:50 PM 30.2 °F 21.3 °F 8.6 °F 40% 30.09 in - WNW 10.4 mph - N/A   Clear
10:10 PM 30.2 °F 21.9 °F 6.8 °F 37% 30.10 in 10.0 mi WNW 9.2 mph - N/A   Clear
10:30 PM 30.2 °F 23.4 °F 6.8 °F 37% 30.10 in 10.0 mi WNW 6.9 mph - N/A   Clear
10:50 PM 28.4 °F - 6.8 °F 40% 30.10 in 10.0 mi Calm Calm - N/A   Clear
11:10 PM 28.4 °F 24.6 °F 6.8 °F 40% 30.10 in 10.0 mi NW 3.5 mph - N/A   Clear
11:30 PM 28.4 °F 24.6 °F 6.8 °F 40% 30.10 in 10.0 mi West 3.5 mph - N/A   Clear
11:50 PM 28.4 °F 23.3 °F 8.6 °F 43% 30.10 in 10.0 mi West 4.6 mph - N/A   Clear